Terminal Aerodrome Forecast
Issued by NWS

Home | Current Version | Previous Version | Text Only | Print | Product List | Glossary On
Versions: 1 2 3 4 5 6 7 8 9 10 11 12 13 14 15 16 17 18 19 20 21 22 23 24 25 26
000
FTUS45 KSLC 292320
TAFBCE
TAF
KBCE 292320Z 3000/3024 28005KT P6SM SKC
     FM300800 26006KT P6SM SCT150
     FM301500 23010KT P6SM FEW080 SCT140
     FM301900 24014G24KT P6SM SCT080 SCT140=

USA.gov is the U.S. government's official web portal to all federal, state and local government web resources and services.